Hampton, VA

12:38 PM EDT on September 27, 2016 (GMT -0400)
Langley Air Force Base

Weather History for KLFI - May, 2013

Change the Weather History Date:

Monday, May 27, 2013

  Actual Average Record
Temperature  
Mean Temperature 62 °F -  
Max Temperature 75 °F 74 °F 96 °F (1941)
Min Temperature 51 °F 58 °F 43 °F (1961)
Degree Days  
Heating Degree Days 2    
Growing Degree Days 12 (Base 50)    
Moisture  
Dew Point 53 °F    
Average Humidity 66    
Maximum Humidity 100    
Minimum Humidity 41    
Precipitation  
Precipitation 0.00 in - - ()
Sea Level Pressure  
Sea Level Pressure 30.25 in    
Wind  
Wind Speed 6 mph (South)    
Max Wind Speed 12 mph    
Max Gust Speed -    
Visibility 10 miles    
Events      
Averages and records for this station are not official NWS values.
T = Trace of Precipitation, MM = Missing Value Source: NWS Daily Summary

Daily Weather History Graph

Daily Weather History Graph

Search for Another Location

Airport or City:

Trip Planner

Search our weather history database for the weather conditions in past years. The results will help you decide how hot, cold, wet, or windy it might be!

Date:

Astronomy

May. 27, 2013 Rise Set
Actual Time 5:49 AM EDT 8:16 PM EDT
Civil Twilight 5:19 AM EDT 8:46 PM EDT
Nautical Twilight 4:42 AM EDT 9:23 PM EDT
Astronomical Twilight 4:01 AM EDT 10:04 PM EDT
Moon 10:55 PM EDT 8:22 AM EDT
Length of Visible Light 15h 27m
Length of Day
14h 27m
Waning Gibbous, 91% of the Moon is Illuminated
May 27
Waning Gibbous
May 31
Last Quarter
Jun 8
New
Jun 16
First Quarter
Jun 23
Full

Hourly Weather History & Observations

Time (EDT) Temp. Dew Point Humidity Pressure Visibility Wind Dir Wind Speed Gust Speed Precip Events Conditions
3:58 AM 52.0 °F 51.8 °F 99% 30.25 in 10.0 mi SW 4.6 mph - N/A   Clear
4:55 AM 51.8 °F 51.8 °F 100% 30.24 in 10.0 mi SW 3.5 mph - N/A   Clear
4:58 AM 52.5 °F 52.2 °F 99% 30.25 in 10.0 mi SW 3.5 mph - N/A   Clear
5:58 AM 51.3 °F 51.3 °F 100% 30.27 in 10.0 mi SSW 2.3 mph - N/A   Clear
6:58 AM 54.1 °F 54.0 °F 99% 30.28 in 10.0 mi South 3.5 mph - N/A   Clear
7:58 AM 62.6 °F 55.6 °F 78% 30.29 in 10.0 mi South 5.8 mph - N/A   Clear
8:58 AM 66.6 °F 53.1 °F 62% 30.31 in 10.0 mi SW 6.9 mph - N/A   Clear
9:58 AM 70.0 °F 49.3 °F 48% 30.30 in 10.0 mi SW 11.5 mph - N/A   Clear
10:55 AM 71.6 °F 50.0 °F 46% 30.28 in 10.0 mi SW 9.2 mph - N/A   Clear
11:58 AM 73.0 °F 50.7 °F 45% 30.29 in 10.0 mi SW 10.4 mph - N/A   Partly Cloudy
12:58 PM 74.5 °F 51.1 °F 44% 30.28 in 10.0 mi South 8.1 mph - N/A   Mostly Cloudy
1:58 PM 73.9 °F 48.7 °F 41% 30.27 in 10.0 mi SSW 9.2 mph - N/A   Overcast
2:58 PM 74.7 °F 50.2 °F 42% 30.26 in 10.0 mi WSW 8.1 mph - N/A   Overcast
3:58 PM 74.8 °F 51.6 °F 44% 30.24 in 10.0 mi East 4.6 mph - N/A   Overcast
4:58 PM 73.0 °F 54.3 °F 52% 30.22 in 10.0 mi ESE 8.1 mph - N/A   Overcast
5:58 PM 71.1 °F 55.2 °F 57% 30.21 in 10.0 mi SE 6.9 mph - N/A   Overcast
6:58 PM 71.2 °F 55.0 °F 56% 30.21 in 10.0 mi SE 5.8 mph - N/A   Overcast
7:58 PM 70.9 °F 56.8 °F 61% 30.21 in 10.0 mi SE 4.6 mph - N/A   Overcast
8:58 PM 68.2 °F 58.6 °F 71% 30.21 in 10.0 mi SSE 4.6 mph - N/A   Overcast
9:58 PM 68.4 °F 56.8 °F 67% 30.23 in 10.0 mi SSE 5.8 mph - N/A   Partly Cloudy
10:58 PM 66.9 °F 55.0 °F 66% 30.22 in 10.0 mi South 9.2 mph - N/A   Scattered Clouds
11:58 PM 67.3 °F 56.1 °F 67% 30.25 in 10.0 mi South 10.4 mph - N/A   Clear